Volver al catálogo

NPP

ActivoMeteoSSO
NORAD 37849·PAYLOAD·🇺🇸 United States

Lanzado Oct 28, 2011 desde Vandenberg Space Force Base

Loading…

Próximos Pases (próximas 24 horas)

TLE

ActualizadoSource: Space-Track

Época: Sep 14, 2026, 15:30 UTC

1 37849U 11061A   26257.64589819  .00000060  00000-0  49468-4 0  9993
2 37849  98.8002 197.9275 0002821  74.9553 285.1935 14.19533123771130

Sigue NPP en tiempo real con AllMySat

Download on the App Store